Time,TemperatureF,DewpointF,PressureIn,WindDirection,WindDirectionDegrees,WindSpeedMPH,WindSpeedGustMPH,Humidity,HourlyPrecipIn,Conditions,Clouds,dailyrainin,SoftwareType,DateUTC
2013-07-17 00:07:00,77.5,70.0,30.26,South,184,1.0,4.0,77,0.00,,,0.00,weatherlink.com 1.10,2013-07-17 05:07:00,
2013-07-17 00:22:00,77.5,70.0,30.26,South,184,0.0,2.0,77,0.00,,,0.00,weatherlink.com 1.10,2013-07-17 05:22:00,
2013-07-17 00:37:00,77.3,70.0,30.26,South,185,0.0,1.0,77,0.00,,,0.00,weatherlink.com 1.10,2013-07-17 05:37:00,
2013-07-17 00:53:00,77.1,69.0,30.26,WSW,239,0.0,1.0,77,0.00,,,0.00,weatherlink.com 1.10,2013-07-17 05:53:00,
2013-07-17 01:08:00,76.7,69.0,30.26,WSW,239,0.0,1.0,78,0.00,,,0.00,weatherlink.com 1.10,2013-07-17 06:08:00,
2013-07-17 01:23:00,76.2,69.0,30.26,WSW,239,0.0,1.0,78,0.00,,,0.00,weatherlink.com 1.10,2013-07-17 06:23:00,
2013-07-17 01:38:00,75.9,69.0,30.26,WSW,239,0.0,0.0,79,0.00,,,0.00,weatherlink.com 1.10,2013-07-17 06:38:00,
2013-07-17 01:53:00,75.6,69.0,30.26,WSW,239,0.0,0.0,79,0.00,,,0.00,weatherlink.com 1.10,2013-07-17 06:53:00,
2013-07-17 02:08:00,75.5,69.0,30.26,WSW,239,0.0,0.0,81,0.00,,,0.00,weatherlink.com 1.10,2013-07-17 07:08:00,
2013-07-17 02:23:00,75.2,69.0,30.26,WSW,239,0.0,0.0,81,0.00,,,0.00,weatherlink.com 1.10,2013-07-17 07:23:00,
2013-07-17 02:38:00,74.8,69.0,30.26,WSW,239,0.0,0.0,83,0.00,,,0.00,weatherlink.com 1.10,2013-07-17 07:38:00,
2013-07-17 02:53:00,74.4,69.0,30.26,WSW,238,0.0,0.0,83,0.00,,,0.00,weatherlink.com 1.10,2013-07-17 07:53:00,
2013-07-17 03:08:00,74.1,69.0,30.26,WSW,239,0.0,0.0,83,0.00,,,0.00,weatherlink.com 1.10,2013-07-17 08:08:00,
2013-07-17 03:23:00,73.8,68.0,30.27,WSW,238,0.0,0.0,83,0.00,,,0.00,weatherlink.com 1.10,2013-07-17 08:23:00,
2013-07-17 03:38:00,73.4,68.0,30.27,WSW,238,0.0,0.0,84,0.00,,,0.00,weatherlink.com 1.10,2013-07-17 08:38:00,
2013-07-17 03:53:00,73.5,69.0,30.27,WSW,238,0.0,1.0,85,0.00,,,0.00,weatherlink.com 1.10,2013-07-17 08:53:00,
2013-07-17 04:08:00,73.8,69.0,30.27,WSW,238,0.0,2.0,85,0.00,,,0.00,weatherlink.com 1.10,2013-07-17 09:08:00,
2013-07-17 04:23:00,74.1,69.0,30.27,WSW,239,0.0,2.0,84,0.00,,,0.00,weatherlink.com 1.10,2013-07-17 09:23:00,
2013-07-17 04:38:00,74.3,69.0,30.27,WSW,238,0.0,0.0,84,0.00,,,0.00,weatherlink.com 1.10,2013-07-17 09:38:00,
2013-07-17 04:53:00,74.4,69.0,30.28,WSW,239,0.0,1.0,84,0.00,,,0.00,weatherlink.com 1.10,2013-07-17 09:53:00,
2013-07-17 05:08:00,74.2,70.0,30.28,WSW,238,0.0,0.0,85,0.00,,,0.00,weatherlink.com 1.10,2013-07-17 10:08:00,
2013-07-17 05:23:00,74.0,69.0,30.28,WSW,239,0.0,1.0,84,0.00,,,0.00,weatherlink.com 1.10,2013-07-17 10:23:00,
2013-07-17 05:38:00,73.8,69.0,30.28,WSW,239,0.0,0.0,84,0.00,,,0.00,weatherlink.com 1.10,2013-07-17 10:38:00,
2013-07-17 05:53:00,73.3,69.0,30.28,WSW,239,0.0,0.0,85,0.00,,,0.00,weatherlink.com 1.10,2013-07-17 10:53:00,
2013-07-17 06:08:00,73.0,69.0,30.28,WSW,239,0.0,0.0,86,0.00,,,0.00,weatherlink.com 1.10,2013-07-17 11:08:00,
2013-07-17 06:23:00,73.1,69.0,30.28,WSW,239,0.0,0.0,86,0.00,,,0.00,weatherlink.com 1.10,2013-07-17 11:23:00,
2013-07-17 06:38:00,73.2,69.0,30.28,WSW,238,0.0,0.0,86,0.00,,,0.00,weatherlink.com 1.10,2013-07-17 11:38:00,
2013-07-17 06:53:00,73.6,69.0,30.28,WSW,238,0.0,0.0,86,0.00,,,0.00,weatherlink.com 1.10,2013-07-17 11:53:00,
2013-07-17 07:08:00,74.0,70.0,30.28,WSW,239,0.0,2.0,86,0.00,,,0.00,weatherlink.com 1.10,2013-07-17 12:08:00,
2013-07-17 07:23:00,74.8,70.0,30.29,WSW,239,2.0,2.0,84,0.00,,,0.00,weatherlink.com 1.10,2013-07-17 12:23:00,
2013-07-17 07:38:00,76.8,70.0,30.29,WSW,238,0.0,3.0,80,0.00,,,0.00,weatherlink.com 1.10,2013-07-17 12:38:00,
2013-07-17 07:53:00,78.6,70.0,30.29,WSW,239,2.0,4.0,75,0.00,,,0.00,weatherlink.com 1.10,2013-07-17 12:53:00,
2013-07-17 08:08:00,80.4,71.0,30.29,WSW,238,0.0,3.0,73,0.00,,,0.00,weatherlink.com 1.10,2013-07-17 13:08:00,
2013-07-17 08:23:00,81.4,70.0,30.29,WSW,238,2.0,3.0,69,0.00,,,0.00,weatherlink.com 1.10,2013-07-17 13:23:00,
2013-07-17 08:38:00,82.7,71.0,30.30,WSW,239,0.0,3.0,68,0.00,,,0.00,weatherlink.com 1.10,2013-07-17 13:38:00,
2013-07-17 08:53:00,83.9,70.0,30.30,WSW,246,0.0,4.0,63,0.00,,,0.00,weatherlink.com 1.10,2013-07-17 13:53:00,
2013-07-17 09:08:00,84.9,70.0,30.30,WSW,250,2.0,3.0,62,0.00,,,0.00,weatherlink.com 1.10,2013-07-17 14:08:00,
2013-07-17 09:24:00,85.8,70.0,30.30,West,279,4.0,8.0,59,0.00,,,0.00,weatherlink.com 1.10,2013-07-17 14:24:00,
2013-07-17 09:39:00,86.5,70.0,30.30,West,280,4.0,5.0,58,0.00,,,0.00,weatherlink.com 1.10,2013-07-17 14:39:00,
2013-07-17 09:54:00,86.5,70.0,30.30,West,279,0.0,5.0,58,0.00,,,0.00,weatherlink.com 1.10,2013-07-17 14:54:00,
2013-07-17 10:09:00,87.1,69.0,30.29,West,275,1.0,4.0,56,0.00,,,0.00,weatherlink.com 1.10,2013-07-17 15:09:00,
2013-07-17 10:24:00,88.9,70.0,30.29,West,279,2.0,4.0,53,0.00,,,0.00,weatherlink.com 1.10,2013-07-17 15:24:00,
2013-07-17 10:39:00,89.0,70.0,30.29,WNW,284,0.0,7.0,54,0.00,,,0.00,weatherlink.com 1.10,2013-07-17 15:39:00,
2013-07-17 10:54:00,89.1,69.0,30.29,WNW,283,1.0,7.0,52,0.00,,,0.00,weatherlink.com 1.10,2013-07-17 15:54:00,
2013-07-17 11:09:00,90.1,70.0,30.29,WNW,286,2.0,5.0,52,0.00,,,0.00,weatherlink.com 1.10,2013-07-17 16:09:00,
2013-07-17 11:24:00,91.4,70.0,30.29,West,280,0.0,4.0,49,0.00,,,0.00,weatherlink.com 1.10,2013-07-17 16:24:00,
2013-07-17 11:39:00,91.9,69.0,30.29,West,276,4.0,4.0,48,0.00,,,0.00,weatherlink.com 1.10,2013-07-17 16:39:00,
2013-07-17 11:54:00,91.7,70.0,30.29,WNW,288,1.0,7.0,49,0.00,,,0.00,weatherlink.com 1.10,2013-07-17 16:54:00,
2013-07-17 12:09:00,92.4,67.0,30.29,WNW,282,3.0,7.0,44,0.00,,,0.00,weatherlink.com 1.10,2013-07-17 17:09:00,
2013-07-17 12:24:00,92.0,67.0,30.29,WNW,284,0.0,8.0,44,0.00,,,0.00,weatherlink.com 1.10,2013-07-17 17:24:00,
2013-07-17 12:39:00,92.2,68.0,30.28,WNW,286,1.0,5.0,45,0.00,,,0.00,weatherlink.com 1.10,2013-07-17 17:39:00,
2013-07-17 12:54:00,92.6,68.0,30.28,WNW,299,3.0,4.0,44,0.00,,,0.00,weatherlink.com 1.10,2013-07-17 17:54:00,
2013-07-17 13:09:00,91.1,68.0,30.28,WNW,287,0.0,3.0,47,0.00,,,0.00,weatherlink.com 1.10,2013-07-17 18:09:00,
2013-07-17 13:24:00,92.4,67.0,30.27,WNW,290,2.0,5.0,44,0.00,,,0.00,weatherlink.com 1.10,2013-07-17 18:24:00,
2013-07-17 13:39:00,93.7,67.0,30.26,NW,314,0.0,6.0,42,0.00,,,0.00,weatherlink.com 1.10,2013-07-17 18:39:00,
2013-07-17 13:54:00,94.3,67.0,30.26,NW,310,0.0,4.0,41,0.00,,,0.00,weatherlink.com 1.10,2013-07-17 18:54:00,
2013-07-17 14:09:00,94.6,68.0,30.25,WNW,294,0.0,5.0,42,0.00,,,0.00,weatherlink.com 1.10,2013-07-17 19:09:00,
2013-07-17 14:24:00,95.6,68.0,30.25,WNW,291,2.0,5.0,40,0.00,,,0.00,weatherlink.com 1.10,2013-07-17 19:24:00,
2013-07-17 14:39:00,95.0,68.0,30.25,WNW,294,0.0,4.0,41,0.00,,,0.00,weatherlink.com 1.10,2013-07-17 19:39:00,
2013-07-17 14:54:00,94.6,67.0,30.24,WNW,294,0.0,4.0,41,0.00,,,0.00,weatherlink.com 1.10,2013-07-17 19:54:00,
2013-07-17 15:09:00,94.6,68.0,30.23,WNW,292,0.0,7.0,42,0.00,,,0.00,weatherlink.com 1.10,2013-07-17 20:09:00,
2013-07-17 15:24:00,94.9,68.0,30.23,WSW,249,3.0,6.0,41,0.00,,,0.00,weatherlink.com 1.10,2013-07-17 20:24:00,
2013-07-17 15:39:00,95.1,68.0,30.23,WSW,254,1.0,5.0,41,0.00,,,0.00,weatherlink.com 1.10,2013-07-17 20:39:00,
2013-07-17 15:54:00,95.2,67.0,30.22,WSW,245,2.0,3.0,39,0.00,,,0.00,weatherlink.com 1.10,2013-07-17 20:54:00,
2013-07-17 16:09:00,94.1,68.0,30.22,WSW,244,0.0,2.0,42,0.00,,,0.00,weatherlink.com 1.10,2013-07-17 21:09:00,
2013-07-17 16:24:00,93.0,67.0,30.21,SW,234,0.0,5.0,43,0.00,,,0.00,weatherlink.com 1.10,2013-07-17 21:24:00,
2013-07-17 16:40:00,92.3,69.0,30.21,SW,234,1.0,3.0,47,0.00,,,0.00,weatherlink.com 1.10,2013-07-17 21:40:00,
2013-07-17 16:55:00,91.0,68.0,30.20,South,190,0.0,6.0,47,0.00,,,0.00,weatherlink.com 1.10,2013-07-17 21:55:00,
2013-07-17 17:10:00,89.4,68.0,30.20,South,190,0.0,1.0,49,0.00,,,0.00,weatherlink.com 1.10,2013-07-17 22:10:00,
2013-07-17 17:25:00,89.1,68.0,30.20,South,190,0.0,1.0,50,0.00,,,0.00,weatherlink.com 1.10,2013-07-17 22:25:00,
2013-07-17 17:40:00,88.4,71.0,30.20,WSW,238,2.0,4.0,57,0.01,,,0.01,weatherlink.com 1.10,2013-07-17 22:40:00,
2013-07-17 17:55:00,84.2,73.0,30.19,WSW,238,0.0,4.0,68,0.01,,,0.01,weatherlink.com 1.10,2013-07-17 22:55:00,
2013-07-17 18:10:00,83.0,72.0,30.19,WSW,251,0.0,2.0,69,0.01,,,0.01,weatherlink.com 1.10,2013-07-17 23:10:00,
2013-07-17 18:25:00,80.7,71.0,30.19,NNW,331,0.0,10.0,71,0.04,,,0.04,weatherlink.com 1.10,2013-07-17 23:25:00,
2013-07-17 18:40:00,78.6,72.0,30.18,NNW,331,0.0,2.0,79,0.03,,,0.04,weatherlink.com 1.10,2013-07-17 23:40:00,
2013-07-17 18:55:00,77.9,72.0,30.18,NNW,331,0.0,1.0,83,0.03,,,0.04,weatherlink.com 1.10,2013-07-17 23:55:00,
2013-07-17 19:10:00,77.7,72.0,30.18,NNW,331,0.0,0.0,83,0.03,,,0.04,weatherlink.com 1.10,2013-07-18 00:10:00,
2013-07-17 19:25:00,77.9,72.0,30.18,NNW,331,0.0,3.0,83,0.00,,,0.04,weatherlink.com 1.10,2013-07-18 00:25:00,
2013-07-17 19:40:00,78.6,72.0,30.18,NNW,331,0.0,0.0,80,0.00,,,0.04,weatherlink.com 1.10,2013-07-18 00:40:00,
2013-07-17 19:55:00,78.6,72.0,30.18,NNW,331,0.0,1.0,81,0.00,,,0.04,weatherlink.com 1.10,2013-07-18 00:55:00,
2013-07-17 20:10:00,79.2,72.0,30.18,NNW,331,0.0,1.0,79,0.00,,,0.04,weatherlink.com 1.10,2013-07-18 01:10:00,
2013-07-17 20:25:00,79.5,72.0,30.17,NNW,331,0.0,0.0,77,0.00,,,0.04,weatherlink.com 1.10,2013-07-18 01:25:00,
2013-07-17 20:40:00,79.3,72.0,30.17,NNW,331,0.0,0.0,77,0.00,,,0.04,weatherlink.com 1.10,2013-07-18 01:40:00,
2013-07-17 20:55:00,78.9,72.0,30.17,NNW,331,0.0,0.0,78,0.00,,,0.04,weatherlink.com 1.10,2013-07-18 01:55:00,
2013-07-17 21:10:00,78.4,71.0,30.17,NNW,331,0.0,0.0,79,0.00,,,0.04,weatherlink.com 1.10,2013-07-18 02:10:00,
2013-07-17 21:25:00,77.8,71.0,30.17,NNW,331,0.0,0.0,80,0.00,,,0.04,weatherlink.com 1.10,2013-07-18 02:25:00,
2013-07-17 21:40:00,77.3,71.0,30.17,NNW,331,0.0,0.0,80,0.00,,,0.04,weatherlink.com 1.10,2013-07-18 02:40:00,
2013-07-17 21:55:00,77.0,71.0,30.17,NNW,331,0.0,0.0,81,0.00,,,0.04,weatherlink.com 1.10,2013-07-18 02:55:00,
2013-07-17 22:10:00,76.7,71.0,30.18,NNW,331,0.0,0.0,82,0.00,,,0.04,weatherlink.com 1.10,2013-07-18 03:10:00,
2013-07-17 22:25:00,76.4,71.0,30.18,NNW,331,0.0,0.0,83,0.00,,,0.04,weatherlink.com 1.10,2013-07-18 03:25:00,
2013-07-17 22:40:00,76.1,71.0,30.18,NNW,331,0.0,0.0,83,0.00,,,0.04,weatherlink.com 1.10,2013-07-18 03:40:00,
2013-07-17 22:55:00,76.0,70.0,30.17,NNW,331,0.0,1.0,81,0.00,,,0.04,weatherlink.com 1.10,2013-07-18 03:55:00,
2013-07-17 23:10:00,76.6,69.0,30.17,NNW,331,0.0,1.0,78,0.00,,,0.04,weatherlink.com 1.10,2013-07-18 04:10:00,
2013-07-17 23:25:00,77.1,69.0,30.17,NNW,331,0.0,2.0,76,0.00,,,0.04,weatherlink.com 1.10,2013-07-18 04:25:00,
2013-07-17 23:40:00,77.6,69.0,30.17,NNW,331,0.0,2.0,74,0.00,,,0.04,weatherlink.com 1.10,2013-07-18 04:40:00,
2013-07-17 23:55:00,77.8,69.0,30.17,NNW,329,0.0,2.0,73,0.00,,,0.04,weatherlink.com 1.10,2013-07-18 04:55:00,